Houston Hull, TX

4:00 PM CST on November 21, 2019 (GMT -0600)
Sugar Land Municipal-Hull

Weather History for KSGR - September, 2019

Change the Weather History Date:

Tuesday, September 3, 2019

  Actual Average Record
Temperature  
Mean Temperature 84 °F -  
Max Temperature 96 °F 91 °F 105 °F (2000)
Min Temperature 73 °F 72 °F 66 °F (1954)
Cooling Degree Days 20    
Growing Degree Days 34 (Base 50)    
Moisture  
Dew Point 73 °F    
Average Humidity 70    
Maximum Humidity 96    
Minimum Humidity 46    
Precipitation  
Precipitation 0.00 in - - ()
Sea Level Pressure  
Sea Level Pressure 29.92 in    
Wind  
Wind Speed 5 mph (ENE)    
Max Wind Speed 14 mph    
Max Gust Speed 20 mph    
Visibility 10 miles    
Events      
Averages and records for this station are not official NWS values.
T = Trace of Precipitation, MM = Missing Value Source: NWS Daily Summary

Daily Weather History Graph

Daily Weather History Graph

Search for Another Location

Airport or City:

Astronomy

Sep. 03, 2019 Rise Set
Actual Time 7:00 AM CDT 7:42 PM CDT
Civil Twilight 6:36 AM CDT 8:06 PM CDT
Nautical Twilight 6:08 AM CDT 8:35 PM CDT
Astronomical Twilight 5:39 AM CDT 9:04 PM CDT
Moon 11:34 AM CDT (9/3) 11:03 PM CDT (9/3)
Length of Visible Light 13h 30m
Length of Day
12h 41m
Waxing Crescent, 25% of the Moon is Illuminated
Sep 3
Waxing Crescent
Sep 5
First Quarter
Sep 13
Full
Sep 21
Last Quarter
Sep 28
New

Hourly Weather History & Observations

Time (CDT) Temp. Heat Index Dew Point Humidity Pressure Visibility Wind Dir Wind Speed Gust Speed Precip Events Conditions
12:53 AM 75.0 °F - 73.0 °F 94% 29.93 in 10.0 mi Calm Calm - N/A   Clear
1:53 AM 75.0 °F - 73.9 °F 96% 29.92 in 10.0 mi NNW 4.6 mph - N/A   Clear
2:53 AM 75.9 °F - 73.9 °F 94% 29.91 in 10.0 mi Calm Calm - N/A   Clear
3:53 AM 75.9 °F - 72.0 °F 87% 29.91 in 10.0 mi North 3.5 mph - N/A   Clear
4:53 AM 75.9 °F - 70.0 °F 82% 29.91 in 10.0 mi North 5.8 mph - N/A   Clear
5:53 AM 75.0 °F - 70.0 °F 84% 29.93 in 10.0 mi North 4.6 mph - N/A   Clear
6:53 AM 73.9 °F - 70.0 °F 87% 29.94 in 10.0 mi North 5.8 mph - N/A   Clear
7:53 AM 78.1 °F - 73.0 °F 84% 29.95 in 10.0 mi NNE 5.8 mph - N/A   Clear
8:53 AM 84.0 °F 91.2 °F 73.9 °F 72% 29.96 in 10.0 mi NNE 6.9 mph - N/A   Clear
9:53 AM 88.0 °F 97.5 °F 75.0 °F 65% 29.96 in 10.0 mi NNE 8.1 mph - N/A   Clear
10:53 AM 89.1 °F 99.1 °F 75.0 °F 63% 29.95 in 10.0 mi ENE 10.4 mph - N/A   Scattered Clouds
11:53 AM 91.9 °F 103.2 °F 75.0 °F 58% 29.95 in 10.0 mi ENE 6.9 mph - N/A   Scattered Clouds
12:53 PM 93.0 °F 103.2 °F 73.9 °F 54% 29.92 in 10.0 mi ENE 11.5 mph - N/A   Mostly Cloudy
1:53 PM 93.9 °F 104.0 °F 73.9 °F 52% 29.91 in 10.0 mi ENE 10.4 mph 19.6 mph N/A   Mostly Cloudy
2:53 PM 93.9 °F 102.1 °F 72.0 °F 49% 29.88 in 10.0 mi ENE 9.2 mph - N/A   Partly Cloudy
3:53 PM 96.1 °F 104.9 °F 72.0 °F 46% 29.87 in 10.0 mi East 13.8 mph - N/A   Partly Cloudy
4:53 PM 93.0 °F 103.2 °F 73.9 °F 54% 29.88 in 10.0 mi East 10.4 mph - N/A   Scattered Clouds
5:53 PM 91.9 °F 101.3 °F 73.9 °F 55% 29.88 in 10.0 mi ESE 11.5 mph 17.3 mph N/A   Clear
6:53 PM 90.0 °F 99.0 °F 73.9 °F 59% 29.89 in 10.0 mi ESE 9.2 mph - N/A   Clear
7:53 PM 88.0 °F 96.5 °F 73.9 °F 63% 29.90 in 10.0 mi ESE 8.1 mph - N/A   Partly Cloudy
8:53 PM 87.1 °F 95.4 °F 73.9 °F 65% 29.91 in 10.0 mi ESE 5.8 mph - N/A   Clear
9:53 PM 86.0 °F 95.1 °F 75.0 °F 70% 29.92 in 10.0 mi ESE 4.6 mph - N/A   Clear
10:53 PM 84.9 °F 93.3 °F 75.0 °F 72% 29.93 in 10.0 mi ESE 3.5 mph - N/A   Clear
11:53 PM 84.0 °F 92.6 °F 75.9 °F 76% 29.94 in 10.0 mi ESE 3.5 mph - N/A   Clear